TimeCST,TemperatureF,Dew PointF,Humidity,Sea Level PressureIn,VisibilityMPH,Wind Direction,Wind SpeedMPH,Gust SpeedMPH,PrecipitationIn,Events,Conditions,WindDirDegrees,DateUTC
12:08 AM,26.6,23.9,90,30.25,10.0,NW,11.5,-,N/A,,Overcast,310,2012-11-28 06:08:00
12:29 AM,26.6,23.9,90,30.26,10.0,NW,10.4,-,N/A,,Overcast,320,2012-11-28 06:29:00
12:49 AM,26.6,23.5,88,30.27,10.0,NNW,13.8,19.6,N/A,,Overcast,330,2012-11-28 06:49:00
1:09 AM,26.8,23.5,88,30.27,10.0,NW,9.2,-,N/A,,Overcast,320,2012-11-28 07:09:00
1:28 AM,29.3,25.7,86,30.28,10.0,NW,10.4,-,N/A,,Overcast,310,2012-11-28 07:28:00
1:49 AM,29.3,25.5,86,30.28,10.0,NW,11.5,-,N/A,,Overcast,310,2012-11-28 07:49:00
2:09 AM,29.3,25.3,85,30.28,10.0,NW,11.5,-,N/A,,Overcast,310,2012-11-28 08:09:00
2:28 AM,29.3,25.3,85,30.28,10.0,NW,9.2,-,N/A,,Overcast,310,2012-11-28 08:28:00
2:48 AM,29.3,25.3,85,30.29,10.0,NW,8.1,-,N/A,,Overcast,310,2012-11-28 08:48:00
3:09 AM,29.3,25.2,85,30.28,10.0,NW,8.1,-,N/A,,Overcast,310,2012-11-28 09:09:00
3:29 AM,29.3,25.2,85,30.29,10.0,WNW,4.6,-,N/A,,Overcast,290,2012-11-28 09:29:00
3:48 AM,29.3,24.8,83,30.29,10.0,WNW,5.8,-,N/A,,Overcast,290,2012-11-28 09:48:00
4:09 AM,29.3,25.2,85,30.29,10.0,West,3.5,-,N/A,,Overcast,280,2012-11-28 10:09:00
4:28 AM,29.3,25.3,85,30.29,10.0,West,4.6,-,N/A,,Overcast,280,2012-11-28 10:28:00
4:48 AM,29.3,25.5,86,30.29,10.0,Calm,Calm,-,N/A,,Overcast,0,2012-11-28 10:48:00
5:08 AM,27.3,24.3,88,30.29,10.0,WNW,3.5,-,N/A,,Overcast,290,2012-11-28 11:08:00
5:28 AM,29.3,26.1,88,30.30,10.0,Calm,Calm,-,N/A,,Overcast,0,2012-11-28 11:28:00
5:49 AM,26.8,23.7,88,30.31,10.0,WSW,3.5,-,N/A,,Overcast,250,2012-11-28 11:49:00
6:09 AM,26.6,23.9,90,30.31,10.0,WSW,5.8,-,N/A,,Overcast,250,2012-11-28 12:09:00
6:29 AM,29.3,26.1,88,30.31,10.0,West,5.8,-,N/A,,Overcast,270,2012-11-28 12:29:00
6:49 AM,28.0,24.8,88,30.32,10.0,West,6.9,-,N/A,,Overcast,260,2012-11-28 12:49:00
7:09 AM,26.6,23.7,89,30.32,10.0,WSW,4.6,-,N/A,,Overcast,250,2012-11-28 13:09:00
7:28 AM,26.6,23.7,89,30.32,10.0,West,3.5,-,N/A,,Overcast,260,2012-11-28 13:28:00
7:49 AM,29.3,25.7,86,30.32,10.0,WSW,4.6,-,N/A,,Overcast,250,2012-11-28 13:49:00
8:08 AM,29.3,25.5,86,30.31,10.0,Calm,Calm,-,N/A,,Overcast,0,2012-11-28 14:08:00
8:29 AM,29.3,25.5,86,30.31,10.0,West,3.5,-,N/A,,Overcast,260,2012-11-28 14:29:00
8:49 AM,29.3,25.2,85,30.30,10.0,Calm,Calm,-,N/A,,Mostly Cloudy,0,2012-11-28 14:49:00
9:08 AM,29.3,24.8,83,30.31,10.0,Calm,Calm,-,N/A,,Scattered Clouds,0,2012-11-28 15:08:00
9:25 AM,29.3,24.4,82,30.31,10.0,SSW,4.6,-,N/A,,Clear,210,2012-11-28 15:25:00
9:49 AM,29.3,23.9,80,30.31,10.0,SW,4.6,-,N/A,,Clear,230,2012-11-28 15:49:00
10:09 AM,30.0,24.3,79,30.31,10.0,SSW,5.8,-,N/A,,Scattered Clouds,200,2012-11-28 16:09:00
10:29 AM,31.3,25.2,78,30.31,10.0,South,6.9,-,N/A,,Scattered Clouds,190,2012-11-28 16:29:00
10:47 AM,31.8,25.2,76,30.31,10.0,SW,8.1,-,N/A,,Clear,220,2012-11-28 16:47:00
11:07 AM,32.4,25.3,75,30.31,10.0,SSW,6.9,-,N/A,,Clear,200,2012-11-28 17:07:00
11:29 AM,31.8,24.8,75,30.29,10.0,South,6.9,-,N/A,,Clear,190,2012-11-28 17:29:00
11:48 AM,34.0,26.6,74,30.28,10.0,SSW,6.9,-,N/A,,Clear,200,2012-11-28 17:48:00
12:09 PM,34.0,26.4,74,30.27,10.0,SSW,8.1,-,N/A,,Clear,200,2012-11-28 18:09:00
12:29 PM,34.0,26.4,74,30.26,10.0,SSW,6.9,-,N/A,,Clear,200,2012-11-28 18:29:00
12:49 PM,34.0,26.6,74,30.25,10.0,SSW,9.2,-,N/A,,Clear,210,2012-11-28 18:49:00
1:08 PM,34.0,26.6,74,30.24,10.0,South,6.9,-,N/A,,Clear,190,2012-11-28 19:08:00
1:28 PM,34.0,26.6,74,30.23,10.0,South,11.5,-,N/A,,Clear,180,2012-11-28 19:28:00
1:48 PM,35.2,27.9,74,30.21,10.0,SSW,6.9,-,N/A,,Clear,200,2012-11-28 19:48:00
2:09 PM,34.9,27.5,74,30.20,10.0,South,8.1,-,N/A,,Clear,190,2012-11-28 20:09:00
2:29 PM,35.2,27.5,73,30.18,10.0,South,8.1,-,N/A,,Clear,180,2012-11-28 20:29:00
2:49 PM,35.6,27.9,73,30.16,10.0,South,9.2,-,N/A,,Clear,170,2012-11-28 20:49:00
3:09 PM,36.5,28.4,72,30.15,10.0,South,8.1,-,N/A,,Clear,180,2012-11-28 21:09:00
3:28 PM,36.5,28.4,72,30.14,10.0,South,9.2,-,N/A,,Clear,170,2012-11-28 21:28:00
3:49 PM,35.1,27.3,73,30.13,10.0,South,4.6,-,N/A,,Clear,170,2012-11-28 21:49:00
4:09 PM,34.3,26.8,74,30.13,10.0,SSE,4.6,-,N/A,,Clear,160,2012-11-28 22:09:00
4:28 PM,34.0,26.4,74,30.13,10.0,Calm,Calm,-,N/A,,Clear,0,2012-11-28 22:28:00
4:49 PM,34.0,27.0,75,30.12,10.0,SSE,4.6,-,N/A,,Clear,150,2012-11-28 22:49:00
5:08 PM,31.8,25.3,77,30.12,10.0,SSE,3.5,-,N/A,,Clear,150,2012-11-28 23:08:00
5:29 PM,34.0,27.5,77,30.11,10.0,SSE,3.5,-,N/A,,Clear,150,2012-11-28 23:29:00
5:48 PM,31.8,25.5,78,30.11,10.0,SE,5.8,-,N/A,,Clear,130,2012-11-28 23:48:00
6:08 PM,31.8,25.7,78,30.11,10.0,SE,5.8,-,N/A,,Clear,140,2012-11-29 00:08:00
6:28 PM,31.8,25.5,78,30.10,10.0,SE,5.8,-,N/A,,Clear,130,2012-11-29 00:28:00
6:49 PM,31.8,25.9,79,30.10,10.0,SE,6.9,-,N/A,,Clear,140,2012-11-29 00:49:00
6:50 PM,31.8,25.9,79,30.10,10.0,SE,6.9,-,N/A,,Clear,140,2012-11-29 00:50:00
7:30 PM,32.0,26.6,80,30.10,10.0,SE,4.6,-,N/A,,Clear,130,2012-11-29 01:30:00
7:50 PM,32.0,26.6,80,30.10,10.0,ESE,4.6,-,N/A,,Clear,110,2012-11-29 01:50:00
8:10 PM,32.0,26.6,80,30.09,10.0,SE,4.6,-,N/A,,Clear,140,2012-11-29 02:10:00
8:30 PM,32.0,26.6,80,30.10,10.0,Calm,Calm,-,N/A,,Clear,0,2012-11-29 02:30:00
8:50 PM,32.0,26.6,80,30.10,10.0,SE,3.5,-,N/A,,Clear,140,2012-11-29 02:50:00
9:10 PM,32.0,26.6,80,30.08,10.0,ESE,5.8,-,N/A,,Clear,110,2012-11-29 03:10:00
9:30 PM,32.0,26.6,80,30.08,10.0,ESE,4.6,-,N/A,,Clear,120,2012-11-29 03:30:00
9:50 PM,32.0,26.6,80,30.07,10.0,SE,4.6,-,N/A,,Scattered Clouds,130,2012-11-29 03:50:00
10:10 PM,30.2,24.8,80,30.07,10.0,ESE,3.5,-,N/A,,Scattered Clouds,120,2012-11-29 04:10:00
10:15 PM,30.2,25.3,82,30.07,10.0,ESE,4.6,-,N/A,,Scattered Clouds,120,2012-11-29 04:15:00
10:28 PM,29.3,24.6,83,30.06,10.0,ESE,3.5,-,N/A,,Clear,120,2012-11-29 04:28:00
10:49 PM,29.3,24.8,83,30.06,10.0,SE,4.6,-,N/A,,Clear,130,2012-11-29 04:49:00
11:08 PM,29.3,25.2,85,30.05,10.0,SE,5.8,-,N/A,,Clear,130,2012-11-29 05:08:00
11:29 PM,29.7,25.2,83,30.06,10.0,Calm,Calm,-,N/A,,Clear,0,2012-11-29 05:29:00
11:49 PM,30.6,25.3,81,30.06,10.0,SE,3.5,-,N/A,,Clear,130,2012-11-29 05:49:00